This is the latest recevied weather packets stored in our database for station/object KI4KWR-1. If no packets are shown the sender has not sent any weather packets the latest 10 day(s).
| Time | Temp. | Humidity | Pressure | Rain* | Wind** | Luminosity | Snow |
|---|---|---|---|---|---|---|---|
| 1788320703 | 23.33° C | 81% | 989.4 hPa | 0 mm | - | - | - |
| 1788319804 | 23.33° C | 82% | 989.4 hPa | 0 mm | - | - | - |
| 1788318904 | 23.33° C | 80% | 989.5 hPa | 0 mm | - | - | - |
| 1788318003 | 23.89° C | 79% | 989.4 hPa | 0 mm | - | - | - |
| 1788317104 | 24.44° C | 79% | 989.3 hPa | 0 mm | - | - | - |
| 1788316203 | 24.44° C | 77% | 989.2 hPa | 0 mm | - | - | - |
| 1788315304 | 25° C | 76% | 989.1 hPa | 0 mm | - | - | - |
| 1788314404 | 25.56° C | 76% | 989 hPa | 0 mm | - | - | - |
| 1788313504 | 25.56° C | 75% | 988.9 hPa | 0 mm | - | - | - |
| 1788312604 | 26.11° C | 75% | 988.8 hPa | 0 mm | - | - | - |
| 1788311703 | 26.67° C | 71% | 988.6 hPa | 0 mm | - | - | - |
| 1788310804 | 27.22° C | 70% | 988.6 hPa | 0 mm | - | - | - |
| 1788309904 | 27.78° C | 66% | 988.6 hPa | 0 mm | - | - | - |
| 1788309003 | 28.89° C | 65% | 988.5 hPa | 0 mm | - | - | - |
| 1788308104 | 30° C | 61% | 988.6 hPa | 0 mm | - | - | - |
| 1788307203 | 31.11° C | 57% | 988.6 hPa | 0 mm | - | - | - |
| 1788306303 | 32.78° C | 52% | 988.7 hPa | 0 mm | - | - | - |
| 1788305404 | 33.33° C | 49% | 988.7 hPa | 0 mm | - | - | - |
| 1788304503 | 32.78° C | 48% | 988.7 hPa | 0 mm | - | - | - |
| 1788303604 | 33.33° C | 40% | 988.6 hPa | 0 mm | - | - | - |
| 1788302704 | 33.89° C | 40% | 988.7 hPa | 0 mm | - | - | - |
| 1788301803 | 33.89° C | 41% | 988.7 hPa | 0 mm | - | - | - |
| 1788300904 | 34.44° C | 39% | 988.5 hPa | 0 mm | - | - | - |
| 1788300004 | 35° C | 38% | 988.5 hPa | 0 mm | - | - | - |
| 1788299104 | 34.44° C | 39% | 988.6 hPa | 0 mm | - | - | - |
* Rain latest hour (hover to see other rain measurements)
** Current wind speed in m/s (hover to see current wind gust speed)